Regional Weather Roundup
Issued by NWS

Home | Current Version | Previous Version | Text Only | Print | Product List | Glossary On
Versions: 1 2 3 4 5 6 7 8 9 10 11 12 13 14 15 16 17 18 19 20 21 22 23 24 25 26 27 28 29 30 31 32 33 34 35 36 37 38 39 40 41 42 43 44 45 46 47 48 49 50
000
ASCA44 KEWX 290820
RWRMX

LATIN AMERICA AND CARIBBEAN REGIONAL WEATHER ROUNDUP
NATIONAL WEATHER SERVICE AUSTIN/SAN ANTONIO TX
300 AM CDT THU JUN 29 2017

NOTE: "FAIR" INDICATED FEW OR NO CLOUDS BELOW 12,000 FEET WITH NO
SIGNIFICANT WEATHER AND/OR OBSTRUCTIONS TO VISIBILITY.

BAJA CALIFORNIA

CITY           SKY/WX    TMP DP  RH WIND       PRES   REMARKS
MEXICALI       CLEAR     82  25  12 N3        29.70R
S.J. DEL CABO    N/A    N/A N/A N/A MISG        N/A
TIJUANA        CLOUDY    61  57  88 CALM      29.94S

NORTHWESTERN MEXICO

CITY           SKY/WX    TMP DP  RH WIND       PRES   REMARKS
HERMOSILLO     CLEAR     84  66  54 CALM      29.87R

NORTHEASTERN MEXICO

CITY           SKY/WX    TMP DP  RH WIND       PRES   REMARKS
MONCLOVA         N/A    N/A N/A N/A MISG        N/A
MONTERREY      CLEAR     73  68  83 CALM      29.84F
REYNOSA          N/A    N/A N/A N/A MISG        N/A
SALTILLO       CLEAR     68  50  52 CALM      30.12S
CD. VICTORIA   CLEAR     75  75 100 N17       29.87F

WESTERN MEXICO

CITY           SKY/WX    TMP DP  RH WIND       PRES   REMARKS
AGUASCALIENTES   N/A    N/A N/A N/A MISG        N/A
COLIMA           N/A    N/A N/A N/A MISG        N/A
GUADALAJARA    PTCLDY    64  59  82 W5        30.15F
MAZATLAN       CLOUDY    79  77  94 CALM      29.90F
P. VALLARTA    MOCLDY    79  77  94 NE2       29.89F
URUAPAN          N/A    N/A N/A N/A MISG        N/A
ZACATECAS        N/A    N/A N/A N/A MISG        N/A

CENTRAL MEXICO

CITY           SKY/WX    TMP DP  RH WIND       PRES   REMARKS
CUERNAVACA       N/A    N/A N/A N/A MISG        N/A
MEXICO CITY    CLOUDY    61  54  77 CALM      30.30F
MORELIA          N/A    N/A N/A N/A MISG        N/A
POZA RICA        N/A    N/A N/A N/A MISG        N/A
S. LUIS POTOSI   N/A    N/A N/A N/A MISG        N/A
TOLUCA         MOCLDY    55  54  94 CALM      30.35F

SOUTHERN MEXICO

CITY           SKY/WX    TMP DP  RH WIND       PRES   REMARKS
ACAPULCO       MOCLDY    79  77  94 N2        29.86F
B. DE HUATULCO   N/A    N/A N/A N/A MISG        N/A
P. ESCONDIDO     N/A    N/A N/A N/A MISG        N/A
VERACRUZ         N/A    N/A N/A N/A MISG        N/A

YUCATAN PENINSULA

CITY           SKY/WX    TMP DP  RH WIND       PRES   REMARKS
CAMPECHE       PTCLDY    79  77  94 E12       29.89F
CANCUN         PTCLDY    82  79  89 E13       29.98F HX  93
CHETUMAL         N/A    N/A N/A N/A MISG        N/A
CD. DEL CARMEN   N/A    N/A N/A N/A MISG        N/A
COZUMEL        PTCLDY    81  77  89 SE8       29.96F
MERIDA         MOCLDY    77  75  94 E7        29.95F
MINATITLAN       N/A    N/A N/A N/A MISG        N/A
TAPACHULA      PTCLDY    75  73  94 CALM      29.89F
TUX. GUTIERREZ PTCLDY    73  70  88 CALM      29.95

CENTRAL AMERICA

CITY           SKY/WX    TMP DP  RH WIND       PRES   REMARKS

CARIBBEAN

CITY           SKY/WX    TMP DP  RH WIND       PRES   REMARKS
ARUBA          PTCLDY    79  77  94 E7        29.89R
CURACAO        LGT RAIN  79  77  94 SE6       29.89S
KINGSTON       PTCLDY    81  73  78 N7        29.97R
NASSAU         PTCLDY    82  77  83 CALM      30.05F HX  91
SAN JUAN       PTCLDY    81  73  78 E13       30.01R
SANTO DOMINGO  PTCLDY    75  73  94 N6        30.00R
ST. CROIX      MOCLDY    81  75  83 NE10      29.98F
ST. MAARTEN    MOCLDY    81  79  94 E15       29.97S
ST. THOMAS     PTCLDY    81  75  83 E14       29.99

$$





USA.gov is the U.S. government's official web portal to all federal, state and local government web resources and services.